Zurück zum Katalog

STARLINK-11366

AktivKommunikationVLEO
NORAD 61693·PAYLOAD·🇺🇸 United States

Gestartet Oct 30, 2024 von Vandenberg Space Force Base

Loading…

Nächste Überflüge (nächste 24 Stunden)

TLE

AktuellSource: CelesTrak SupGP

Epoche: Sep 14, 2026, 22:30 UTC

1 61693C 24195G   26257.93798611 -.00034582  00000+0 -28473-3 0  2579
2 61693  53.1573 173.3453 0001196  93.4910  30.2655 15.69737836    17

Verfolge STARLINK-11366 in Echtzeit mit AllMySat

Download on the App Store